EW3651 Weather Reports


time (UTC)temp
C
wind
direction
speed
KPH
gust
KPH
rain 1hr
cm
rain 24hr
cm
rain mn
cm
humidity
%
barometer
mb
20260509005504 26 281 3.2 6.4 0.00 0.00 0.00 44 1016.0
20260509005004 26 296 1.6 6.4 0.00 0.00 0.00 46 1016.0
20260509004504 26 286 1.6 11.3 0.00 0.00 0.00 48 1016.0
20260509004004 26 269 1.6 11.3 0.00 0.00 0.00 47 1016.0
20260509003504 26 299 3.2 9.7 0.00 0.00 0.00 47 1016.1
20260509003004 27 304 3.2 9.7 0.00 0.00 0.00 48 1016.1
20260509002504 27 303 3.2 9.7 0.00 0.00 0.00 47 1016.2
20260509002004 27 294 1.6 9.7 0.00 0.00 0.00 46 1016.2
20260509001504 26 297 1.6 9.7 0.00 0.00 0.00 50 1016.1
20260509001004 26 306 3.2 9.7 0.00 0.00 0.00 48 1016.2
20260509000504 26 312 3.2 9.7 0.00 0.00 0.00 45 1016.2
20260509000004 26 312 3.2 9.7 0.00 0.00 0.00 47 1016.3
20260508235504 26 312 3.2 8.0 0.00 0.00 0.00 44 1016.3
20260508235004 26 306 3.2 9.7 0.00 0.00 0.00 43 1016.3
20260508234504 26 272 1.6 9.7 0.00 0.00 0.00 42 1016.3
20260508234004 26 252 3.2 9.7 0.00 0.00 0.00 42 1016.3
20260508233525 26 289 3.2 12.9 0.00 0.00 0.00 41 1016.3
20260508233004 26 302 4.8 12.9 0.00 0.00 0.00 41 1016.3
20260508232504 26 296 4.8 11.3 0.00 0.00 0.00 42 1016.4
20260508232025 26 293 3.2 11.3 0.00 0.00 0.00 41 1016.4
20260508231504 26 279 1.6 4.8 0.00 0.00 0.00 41 1016.4
20260508231004 26 320 3.2 14.5 0.00 0.00 0.00 40 1016.5
20260508230504 26 316 4.8 14.5 0.00 0.00 0.00 42 1016.5
20260508230004 26 298 4.8 11.3 0.00 0.00 0.00 38 1016.6
20260508225504 27 299 3.2 9.7 0.00 0.00 0.00 41 1016.6
20260508225004 27 318 3.2 11.3 0.00 0.00 0.00 42 1016.6
20260508224504 27 311 3.2 11.3 0.00 0.00 0.00 40 1016.8
20260508224025 26 281 1.6 9.7 0.00 0.00 0.00 38 1016.9
20260508223504 26 226 1.6 9.7 0.00 0.00 0.00 41 1016.9
20260508223025 26 253 3.2 9.7 0.00 0.00 0.00 39 1017.0
20260508222504 26 284 3.2 9.7 0.00 0.00 0.00 42 1017.0
20260508222025 26 277 3.2 9.7 0.00 0.00 0.00 40 1017.1
20260508221504 26 313 3.2 12.9 0.00 0.00 0.00 42 1017.2
20260508221025 26 327 3.2 12.9 0.00 0.00 0.00 50 1017.2
20260508220504 25 305 3.2 11.3 0.00 0.00 0.00 45 1017.3
20260508220004 25 294 4.8 11.3 0.00 0.00 0.00 41 1017.4
20260508215504 25 281 3.2 11.3 0.00 0.00 0.00 43 1017.4
20260508215004 26 279 1.6 11.3 0.00 0.00 0.00 44 1017.4
20260508214504 26 298 1.6 6.4 0.00 0.00 0.00 45 1017.5
20260508214004 25 306 3.2 8.0 0.00 0.00 0.00 45 1017.5
20260508213504 25 310 3.2 11.3 0.00 0.00 0.00 47 1017.6
20260508213004 25 278 3.2 11.3 0.00 0.00 0.00 45 1017.7
20260508212504 25 254 3.2 11.3 0.00 0.00 0.00 50 1017.7
20260508212004 25 286 3.2 11.3 0.00 0.00 0.00 48 1017.7
20260508211504 25 303 3.2 12.9 0.00 0.00 0.00 51 1017.7
20260508211025 25 304 4.8 12.9 0.00 0.00 0.00 49 1017.7
20260508210504 25 288 4.8 14.5 0.00 0.00 0.00 51 1017.8
20260508210004 25 277 3.2 14.5 0.00 0.00 0.00 51 1017.7
20260508205504 25 261 3.2 11.3 0.00 0.00 0.00 47 1017.7
20260508205025 25 271 3.2 11.3 0.00 0.00 0.00 46 1017.7
20260508204504 25 285 4.8 14.5 0.00 0.00 0.00 42 1017.7
20260508204025 25 290 4.8 14.5 0.00 0.00 0.00 47 1017.7
20260508203504 25 305 3.2 8.0 0.00 0.00 0.00 47 1017.7
20260508203004 25 300 3.2 12.9 0.00 0.00 0.00 47 1017.7
20260508202004 25 304 4.8 14.5 0.00 0.00 0.00 47 1017.9
20260508201504 25 303 4.8 11.3 0.00 0.00 0.00 50 1017.9
20260508201004 25 281 4.8 14.5 0.00 0.00 0.00 47 1018.0
20260508200504 25 277 3.2 14.5 0.00 0.00 0.00 44 1017.9
20260508200004 25 336 3.2 14.5 0.00 0.00 0.00 49 1017.8
20260508195504 25 333 4.8 14.5 0.00 0.00 0.00 48 1017.9
20260508195004 24 313 4.8 12.9 0.00 0.00 0.00 51 1017.9
20260508194525 24 315 4.8 12.9 0.00 0.00 0.00 49 1017.9
20260508194004 24 293 4.8 12.9 0.00 0.00 0.00 50 1017.9
20260508193504 23 277 4.8 14.5 0.00 0.00 0.00 47 1017.9
20260508193025 24 283 4.8 14.5 0.00 0.00 0.00 47 1018.0
20260508192525 24 288 4.8 12.9 0.00 0.00 0.00 44 1018.0
20260508192004 24 304 4.8 11.3 0.00 0.00 0.00 48 1018.0
20260508191504 24 302 6.4 14.5 0.00 0.00 0.00 46 1018.0
20260508191003 24 296 6.4 14.5 0.00 0.00 0.00 43 1018.1
20260508190504 25 299 3.2 12.9 0.00 0.00 0.00 42 1018.0
20260508190004 25 275 1.6 6.4 0.00 0.00 0.00 46 1018.0
20260508185504 24 268 1.6 8.0 0.00 0.00 0.00 47 1018.1
20260508185004 24 275 3.2 8.0 0.00 0.00 0.00 46 1018.1
20260508184504 24 272 3.2 14.5 0.00 0.00 0.00 48 1018.1
20260508184004 24 275 4.8 14.5 0.00 0.00 0.00 46 1018.2
20260508183503 24 300 3.2 9.7 0.00 0.00 0.00 47 1018.2
20260508183004 24 318 1.6 9.7 0.00 0.00 0.00 52 1018.1
20260508182504 23 245 1.6 4.8 0.00 0.00 0.00 54 1018.1
20260508182004 23 263 3.2 8.0 0.00 0.00 0.00 49 1018.1
20260508181504 23 289 3.2 8.0 0.00 0.00 0.00 49 1018.2
20260508181003 23 277 1.6 4.8 0.00 0.00 0.00 51 1018.2
20260508180504 23 282 3.2 6.4 0.00 0.00 0.00 49 1018.2
20260508180004 23 282 1.6 6.4 0.00 0.00 0.00 49 1018.1
20260508175504 23 293 1.6 6.4 0.00 0.00 0.00 50 1018.2
20260508175004 22 271 1.6 6.4 0.00 0.00 0.00 52 1018.2
20260508174504 22 233 1.6 6.4 0.00 0.00 0.00 50 1018.2
20260508174004 22 250 0.0 4.8 0.00 0.00 0.00 56 1018.2
20260508173503 21 290 0.0 3.2 0.00 0.00 0.00 59 1018.2
20260508173004 21 306 1.6 6.4 0.00 0.00 0.00 53 1018.2
20260508172503 21 290 3.2 6.4 0.00 0.00 0.00 53 1018.3
20260508172004 21 272 1.6 6.4 0.00 0.00 0.00 56 1018.4
20260508171504 20 278 1.6 8.0 0.00 0.00 0.00 53 1018.4
20260508171004 20 306 1.6 8.0 0.00 0.00 0.00 59 1018.4
20260508170525 20 326 1.6 6.4 0.00 0.00 0.00 61 1018.4
20260508170004 20 294 1.6 6.4 0.00 0.00 0.00 59 1018.4
20260508165504 20 265 1.6 6.4 0.00 0.00 0.00 59 1018.4
20260508165004 20 292 1.6 4.8 0.00 0.00 0.00 60 1018.4
20260508164503 19 295 1.6 4.8 0.00 0.00 0.00 56 1018.3
20260508164004 18 300 0.0 4.8 0.00 0.00 0.00 60 1018.2
20260508163504 18 0 0.0 0.0 0.00 0.00 0.00 64 1018.2
20260508163004 17 0 0.0 0.0 0.00 0.00 0.00 68 1018.2
20260508162504 17 0 0.0 0.0 0.00 0.00 0.00 68 1018.2
20260508162004 16 0 0.0 0.0 0.00 0.00 0.00 76 1018.2
20260508161504 16 0 0.0 0.0 0.00 0.00 0.00 79 1018.3
20260508161003 15 0 0.0 0.0 0.00 0.00 0.00 78 1018.3
20260508160504 15 0 0.0 0.0 0.00 0.00 0.00 82 1018.4
20260508160004 14 0 0.0 0.0 0.00 0.00 0.00 82 1018.3
20260508155504 13 0 0.0 0.0 0.00 0.00 0.00 82 1018.4
20260508155003 13 0 0.0 0.0 0.00 0.00 0.00 86 1018.3
20260508154524 12 0 0.0 0.0 0.00 0.00 0.00 87 1018.4
20260508154025 12 0 0.0 0.0 0.00 0.00 0.00 88 1018.4
20260508153524 11 0 0.0 0.0 0.00 0.00 0.00 89 1018.4
20260508153004 11 0 0.0 0.0 0.00 0.00 0.00 88 1018.4
20260508152525 11 0 0.0 0.0 0.00 0.00 0.00 90 1018.3
20260508152004 10 0 0.0 0.0 0.00 0.00 0.00 90 1018.2
20260508151503 10 0 0.0 0.0 0.00 0.00 0.00 88 1018.3
20260508151004 10 0 0.0 0.0 0.00 0.00 0.00 88 1018.3
20260508150504 9 0 0.0 0.0 0.00 0.00 0.00 90 1018.2
20260508150004 9 0 0.0 0.0 0.00 0.00 0.00 89 1018.2
20260508145504 8 0 0.0 0.0 0.00 0.00 0.00 87 1018.2
20260508145025 8 0 0.0 0.0 0.00 0.00 0.00 86 1018.2
20260508144503 8 0 0.0 0.0 0.00 0.00 0.00 88 1018.2
20260508144003 8 0 0.0 0.0 0.00 0.00 0.00 88 1018.2
20260508143525 8 0 0.0 0.0 0.00 0.00 0.00 87 1018.1
20260508143025 8 0 0.0 0.0 0.00 0.00 0.00 88 1018.0
20260508142504 8 0 0.0 0.0 0.00 0.00 0.00 87 1018.0
20260508142004 8 0 0.0 0.0 0.00 0.00 0.00 87 1017.9
20260508141525 8 0 0.0 0.0 0.00 0.00 0.00 88 1017.9
20260508141003 8 0 0.0 0.0 0.00 0.00 0.00 87 1017.8
20260508140525 8 0 0.0 0.0 0.00 0.00 0.00 88 1017.8
20260508140004 8 0 0.0 0.0 0.00 0.00 0.00 88 1017.8
20260508135503 8 0 0.0 0.0 0.00 0.00 0.00 88 1017.8
20260508135024 8 0 0.0 0.0 0.00 0.00 0.00 87 1017.9
20260508134503 8 0 0.0 0.0 0.00 0.00 0.00 88 1017.8
20260508134004 8 0 0.0 0.0 0.00 0.00 0.00 88 1017.8
20260508133503 8 0 0.0 0.0 0.00 0.00 0.00 88 1017.7
20260508133003 8 0 0.0 0.0 0.00 0.00 0.00 87 1017.6
20260508132504 8 0 0.0 0.0 0.00 0.00 0.00 87 1017.7
20260508132003 8 0 0.0 0.0 0.00 0.00 0.00 87 1017.6
20260508131504 8 0 0.0 0.0 0.00 0.00 0.00 87 1017.6
20260508131003 8 0 0.0 0.0 0.00 0.00 0.00 87 1017.6
20260508130504 8 0 0.0 0.0 0.00 0.00 0.00 86 1017.5
20260508130004 8 0 0.0 0.0 0.00 0.00 0.00 87 1017.4
20260508125504 8 92 0.0 3.2 0.00 0.00 0.00 87 1017.4
20260508125003 8 92 0.0 3.2 0.00 0.00 0.00 87 1017.4
20260508124503 8 0 0.0 0.0 0.00 0.00 0.00 86 1017.4
20260508124004 8 0 0.0 0.0 0.00 0.00 0.00 87 1017.4
20260508123503 8 0 0.0 0.0 0.00 0.00 0.00 87 1017.4
20260508123003 8 0 0.0 0.0 0.00 0.00 0.00 87 1017.4
20260508122503 8 0 0.0 0.0 0.00 0.00 0.00 87 1017.3
20260508122003 8 0 0.0 0.0 0.00 0.00 0.00 87 1017.4
20260508121503 8 0 0.0 0.0 0.00 0.00 0.00 87 1017.4
20260508121003 8 0 0.0 0.0 0.00 0.00 0.00 88 1017.4
20260508120503 8 0 0.0 0.0 0.00 0.00 0.00 88 1017.3
20260508120004 8 0 0.0 0.0 0.00 0.00 0.00 88 1017.3
20260508115503 8 0 0.0 0.0 0.00 0.00 0.00 89 1017.4
20260508115003 8 92 0.0 3.2 0.00 0.00 0.00 89 1017.4
20260508114503 9 92 0.0 3.2 0.00 0.00 0.00 89 1017.4
20260508114024 9 92 0.0 1.6 0.00 0.00 0.00 89 1017.4
20260508113503 9 0 0.0 0.0 0.00 0.00 0.00 87 1017.4
20260508113004 9 0 0.0 0.0 0.00 0.00 0.00 88 1017.4
20260508112503 9 0 0.0 0.0 0.00 0.00 0.00 88 1017.3
20260508112003 9 0 0.0 0.0 0.00 0.00 0.00 88 1017.4
20260508111503 9 67 0.0 3.2 0.00 0.00 0.00 89 1017.3
20260508111003 9 49 0.0 3.2 0.00 0.00 0.00 89 1017.3
20260508110524 9 314 0.0 1.6 0.00 0.00 0.00 89 1017.3
20260508110003 9 300 0.0 1.6 0.00 0.00 0.00 88 1017.3
20260508105503 9 300 0.0 1.6 0.00 0.00 0.00 89 1017.3
20260508105003 10 330 0.0 1.6 0.00 0.00 0.00 89 1017.3
20260508104503 10 330 0.0 1.6 0.00 0.00 0.00 89 1017.4
20260508104003 10 303 0.0 1.6 0.00 0.00 0.00 89 1017.4
20260508103503 10 303 0.0 1.6 0.00 0.00 0.00 89 1017.4
20260508103003 10 0 0.0 0.0 0.00 0.00 0.00 88 1017.4
20260508102524 10 0 0.0 0.0 0.00 0.00 0.00 88 1017.3
20260508102003 10 0 0.0 0.0 0.00 0.00 0.00 89 1017.3
20260508101503 10 0 0.0 0.0 0.00 0.00 0.00 89 1017.3
20260508101003 10 0 0.0 0.0 0.00 0.00 0.00 90 1017.4
20260508100504 10 0 0.0 0.0 0.00 0.00 0.00 90 1017.4
20260508100004 10 0 0.0 0.0 0.00 0.00 0.00 90 1017.4
20260508095503 10 0 0.0 0.0 0.00 0.00 0.00 90 1017.4
20260508095003 10 303 0.0 1.6 0.00 0.00 0.00 90 1017.4
20260508094503 10 303 0.0 1.6 0.00 0.00 0.00 90 1017.3
20260508094003 11 0 0.0 0.0 0.00 0.00 0.00 91 1017.4
20260508093503 11 0 0.0 0.0 0.00 0.00 0.00 91 1017.4
20260508093024 11 0 0.0 0.0 0.00 0.00 0.00 91 1017.5
20260508092503 11 0 0.0 0.0 0.00 0.00 0.00 91 1017.5
20260508092003 11 0 0.0 0.0 0.00 0.00 0.00 91 1017.4
20260508091503 11 0 0.0 0.0 0.00 0.00 0.00 90 1017.4
20260508091003 11 0 0.0 0.0 0.00 0.00 0.00 91 1017.4
20260508090503 11 334 0.0 1.6 0.00 0.00 0.00 91 1017.4
20260508090024 11 325 0.0 1.6 0.00 0.00 0.00 91 1017.4
20260508085503 11 320 0.0 1.6 0.00 0.00 0.00 91 1017.3
20260508085003 11 0 0.0 0.0 0.00 0.00 0.00 91 1017.3
20260508084503 11 0 0.0 0.0 0.00 0.00 0.00 90 1017.3
20260508084003 11 359 0.0 1.6 0.00 0.00 0.00 90 1017.4
20260508083503 11 349 0.0 1.6 0.00 0.00 0.00 90 1017.4
20260508083005 11 348 0.0 1.6 0.00 0.00 0.00 90 1017.4
20260508082505 11 339 0.0 1.6 0.00 0.00 0.00 90 1017.4
20260508082026 12 344 0.0 1.6 0.00 0.00 0.00 91 1017.5
20260508081505 12 338 0.0 1.6 0.00 0.00 0.00 91 1017.5
20260508081004 12 326 0.0 1.6 0.00 0.00 0.00 91 1017.5
20260508080505 12 311 0.0 1.6 0.00 0.00 0.00 91 1017.6
20260508080005 12 359 0.0 1.6 0.00 0.00 0.00 91 1017.6
20260508075505 12 359 0.0 1.6 0.00 0.00 0.00 91 1017.5
20260508075005 12 359 0.0 1.6 0.00 0.00 0.00 91 1017.5
20260508074504 12 359 0.0 3.2 0.00 0.00 0.00 91 1017.5
20260508074005 12 359 0.0 3.2 0.00 0.00 0.00 91 1017.4
20260508073504 12 359 0.0 3.2 0.00 0.00 0.00 91 1017.5
20260508073004 12 0 0.0 0.0 0.00 0.00 0.00 91 1017.5
20260508072505 12 0 0.0 0.0 0.00 0.00 0.00 91 1017.6
20260508072025 12 0 0.0 0.0 0.00 0.00 0.00 91 1017.5
20260508071505 12 0 0.0 0.0 0.00 0.00 0.00 91 1017.6
20260508071005 12 0 0.0 0.0 0.00 0.00 0.00 91 1017.5
20260508070526 12 0 0.0 0.0 0.00 0.00 0.00 91 1017.4
20260508070005 12 0 0.0 0.0 0.00 0.00 0.00 90 1017.4
20260508065504 13 0 0.0 0.0 0.00 0.00 0.00 90 1017.4
20260508065005 13 0 0.0 0.0 0.00 0.00 0.00 90 1017.4
20260508064504 13 0 0.0 0.0 0.00 0.00 0.00 90 1017.4
20260508064005 13 0 0.0 0.0 0.00 0.00 0.00 90 1017.4
20260508063526 13 0 0.0 0.0 0.00 0.00 0.00 90 1017.3
20260508063004 13 0 0.0 0.0 0.00 0.00 0.00 89 1017.4
20260508062505 13 0 0.0 0.0 0.00 0.00 0.00 89 1017.4
20260508062005 13 0 0.0 0.0 0.00 0.00 0.00 89 1017.4
20260508061526 13 359 0.0 3.2 0.00 0.00 0.00 89 1017.4
20260508061005 13 359 0.0 3.2 0.00 0.00 0.00 89 1017.4
20260508060505 13 359 0.0 3.2 0.00 0.00 0.00 89 1017.4
20260508060005 14 359 0.0 1.6 0.00 0.00 0.00 90 1017.4
20260508055504 14 359 0.0 3.2 0.00 0.00 0.00 90 1017.4
20260508055005 14 359 1.6 3.2 0.00 0.00 0.00 90 1017.5
20260508054505 14 359 1.6 3.2 0.00 0.00 0.00 90 1017.6
20260508054004 14 359 1.6 3.2 0.00 0.00 0.00 90 1017.5
20260508053504 14 359 0.0 3.2 0.00 0.00 0.00 90 1017.5
20260508053004 14 359 0.0 1.6 0.00 0.00 0.00 89 1017.5
20260508052505 15 359 0.0 1.6 0.00 0.00 0.00 89 1017.6
20260508052025 15 0 0.0 0.0 0.00 0.00 0.00 89 1017.6
20260508051504 15 0 0.0 0.0 0.00 0.00 0.00 88 1017.6
20260508051025 15 0 0.0 0.0 0.00 0.00 0.00 88 1017.6
20260508050504 15 0 0.0 0.0 0.00 0.00 0.00 88 1017.6
20260508050005 15 0 0.0 0.0 0.00 0.00 0.00 88 1017.6
20260508045504 15 0 0.0 0.0 0.00 0.00 0.00 87 1017.7
20260508045004 15 0 0.0 0.0 0.00 0.00 0.00 87 1017.7
20260508044504 15 0 0.0 0.0 0.00 0.00 0.00 87 1017.7
20260508044004 16 0 0.0 0.0 0.00 0.00 0.00 86 1017.7
20260508043526 16 0 0.0 0.0 0.00 0.00 0.00 86 1017.7
20260508043004 16 0 0.0 0.0 0.00 0.00 0.00 85 1017.6
20260508042504 16 0 0.0 0.0 0.00 0.00 0.00 85 1017.6
20260508042004 16 0 0.0 0.0 0.00 0.00 0.00 85 1017.5
20260508041505 16 359 0.0 1.6 0.00 0.00 0.00 84 1017.5
20260508041005 16 359 0.0 1.6 0.00 0.00 0.00 84 1017.5
20260508040504 17 0 0.0 0.0 0.00 0.00 0.00 83 1017.4
20260508040005 17 359 0.0 1.6 0.00 0.00 0.00 83 1017.4
20260508035504 17 359 0.0 1.6 0.00 0.00 0.00 82 1017.4
20260508035025 17 359 0.0 1.6 0.00 0.00 0.00 81 1017.3
20260508034504 17 359 0.0 1.6 0.00 0.00 0.00 80 1017.2
20260508034025 17 359 0.0 1.6 0.00 0.00 0.00 79 1017.2
20260508033525 18 0 0.0 0.0 0.00 0.00 0.00 78 1017.2
20260508033004 18 0 0.0 0.0 0.00 0.00 0.00 77 1017.2
20260508032504 18 0 0.0 0.0 0.00 0.00 0.00 76 1017.1
20260508032004 19 0 0.0 0.0 0.00 0.00 0.00 75 1017.0
20260508031504 20 0 0.0 0.0 0.00 0.00 0.00 74 1017.0
20260508031004 20 0 0.0 0.0 0.00 0.00 0.00 72 1016.9
20260508030504 20 0 0.0 0.0 0.00 0.00 0.00 72 1016.9
20260508030005 21 0 0.0 0.0 0.00 0.00 0.00 71 1016.8
20260508025504 21 0 0.0 0.0 0.00 0.00 0.00 70 1016.7
20260508025004 21 0 0.0 0.0 0.00 0.00 0.00 69 1016.7
20260508024504 22 0 0.0 0.0 0.00 0.00 0.00 68 1016.7
20260508024004 22 303 0.0 3.2 0.00 0.00 0.00 67 1016.7
20260508023504 22 302 0.0 3.2 0.00 0.00 0.00 65 1016.7
20260508023004 23 270 0.0 4.8 0.00 0.00 0.00 64 1016.7
20260508022504 23 284 1.6 4.8 0.00 0.00 0.00 63 1016.7
20260508022004 23 285 1.6 4.8 0.00 0.00 0.00 59 1016.6
20260508021504 23 277 1.6 4.8 0.00 0.00 0.00 60 1016.6
20260508021004 23 279 0.0 4.8 0.00 0.00 0.00 59 1016.6
20260508020504 24 283 0.0 1.6 0.00 0.00 0.00 59 1016.5
20260508020004 24 275 0.0 4.8 0.00 0.00 0.00 58 1016.6
20260508015504 25 309 1.6 4.8 0.00 0.00 0.00 57 1016.5
20260508015004 25 306 1.6 4.8 0.00 0.00 0.00 57 1016.5
20260508014504 25 301 1.6 8.0 0.00 0.00 0.00 54 1016.5
20260508014004 25 313 1.6 8.0 0.00 0.00 0.00 53 1016.5
20260508013504 25 291 1.6 6.4 0.00 0.00 0.00 54 1016.6
20260508013005 25 280 1.6 8.0 0.00 0.00 0.00 53 1016.5
20260508012504 25 291 1.6 8.0 0.00 0.00 0.00 53 1016.6
20260508012004 25 287 1.6 6.4 0.00 0.00 0.00 51 1016.6
20260508011504 25 283 3.2 6.4 0.00 0.00 0.00 51 1016.5
20260508011004 26 267 1.6 4.8 0.00 0.00 0.00 50 1016.6
20260508010504 26 286 1.6 6.4 0.00 0.00 0.00 52 1016.6
20260508010004 26 310 3.2 6.4 0.00 0.00 0.00 51 1016.6